Flag for Reunion (French) Weather past 2 weeks in Saint-Denis, Reunion (French)

Now
79 °F

Partly cloudy.


Feels Like: 82 °F
Forecast: 77 / 85 °F
Wind: 5 mph from South

Location: Saint-Denis / Gillot

Current Time: Dec 26, 2014 at 2:49:56 AM

Latest Report: Dec 26, 2014 at 2:00 AM


Visibility: N/A

Pressure: 29.86 "Hg

Humidity: 79%

Dew point: 72 °F

Location of Saint-DenisLocation

Historic Weather in Saint-Denis — Graph

°F

Saint-Denis temperature yesterday

Maximum temperature yesterday: 88 °F (at 10:30 AM)
Minimum temperature yesterday: 77 °F (at 3:30 AM)
Average temperature yesterday: 80 °F

Past Weeks' High & Low Weather Summary

 TemperatureHumidityPressure
High90 °F (Dec 18, 12:35 PM)100% (Dec 21, 5:00 AM)30.04 "Hg (Dec 21, 5:00 AM)
Low73 °F (Dec 12, 1:30 AM)49% (Dec 11, 1:30 PM)29.77 "Hg (Dec 18, 4:30 PM)
Average81 °F73%29.92 "Hg
* Reported Dec 11 2:00 AM — Dec 26 2:00 AM, Saint-Denis, Weather by CustomWeather, © 2014

Note: Actual official high and low records may vary slightly from our data, if they occured in-between our weather recording intervals... More about our weather records

Advertising

Saint-Denis weather history for previous 24 hours

 ConditionsComfort  
Time TempWeatherWind HumidityBarometerVisibility
2:00 AM
Dec 26
79 °FPartly cloudy.5 mph79%29.86 "HgN/A
1:30 AM77 °FClear.8 mph79%29.86 "HgN/A
1:00 AM77 °FClear.7 mph83%29.86 "HgN/A
12:30 AM77 °FClear.3 mph79%29.89 "HgN/A
12:00 AM79 °FClear.3 mph79%29.89 "HgN/A
11:30 PM
Dec 25
77 °FClear.5 mph83%29.89 "HgN/A
11:00 PM77 °FPartly cloudy.5 mph83%29.89 "HgN/A
10:30 PM77 °FPartly cloudy.6 mph83%29.89 "HgN/A
10:00 PM77 °FPartly cloudy.3 mph83%29.89 "HgN/A
9:30 PM79 °FPartly cloudy.3 mph79%29.89 "HgN/A
9:00 PM77 °FPartly cloudy.5 mph83%29.89 "HgN/A
8:30 PM77 °FPartly cloudy.5 mph89%29.86 "HgN/A
8:00 PM79 °FPassing clouds.2 mph89%29.86 "HgN/A
7:30 PM81 °FPartly cloudy.2 mph84%29.86 "HgN/A
7:00 PM81 °FPartly cloudy.5 mph84%29.86 "HgN/A
6:30 PM81 °FPartly cloudy.3 mph84%29.86 "HgN/A
6:00 PM81 °FPartly cloudy.2 mph79%29.86 "HgN/A
5:30 PM81 °FBroken clouds.2 mph79%29.86 "HgN/A
5:00 PM81 °FBroken clouds.3 mph84%29.86 "HgN/A
4:30 PM81 °FBroken clouds.6 mph84%29.86 "HgN/A
4:00 PM81 °FBroken clouds.8 mph84%29.86 "HgN/A
3:30 PM79 °FThunderstorms. Broken clouds.9 mph89%29.86 "HgN/A
3:00 PM77 °FThunderstorms. Broken clouds.6 mph94%29.86 "HgN/A
2:30 PM77 °FThunderstorms. Broken clouds.7 mph89%29.86 "Hg2 mi
2:00 PM77 °FThunderstorms. Broken clouds.13 mph94%29.89 "Hg1 mi
1:30 PM77 °FThunderstorms. Broken clouds.18 mph89%29.89 "Hg2 mi
1:00 PM82 °FThunderstorms. Broken clouds.7 mph79%29.89 "HgN/A
12:30 PM86 °FScattered clouds.9 mph70%29.89 "HgN/A
12:00 PM86 °FScattered clouds.8 mph70%29.89 "HgN/A
11:30 AM88 °FScattered clouds.7 mph70%29.89 "HgN/A
11:00 AM88 °FScattered clouds.7 mph66%29.89 "HgN/A
10:30 AM88 °FScattered clouds.7 mph66%29.89 "HgN/A
10:00 AM86 °FScattered clouds.8 mph70%29.92 "HgN/A
9:30 AM86 °FScattered clouds.7 mph70%29.92 "HgN/A
9:00 AM86 °FScattered clouds.6 mph70%29.92 "HgN/A
8:30 AM86 °FScattered clouds.5 mph70%29.89 "HgN/A
8:00 AM86 °FScattered clouds.3 mph66%29.89 "HgN/A
7:30 AM86 °FScattered clouds.3 mph66%29.89 "HgN/A
7:00 AM82 °FScattered clouds.2 mph70%29.89 "HgN/A
6:36 AM79 °FScattered clouds.3 mph74%29.89 "HgN/A
6:00 AM77 °FScattered clouds.6 mph79%29.86 "HgN/A
5:30 AM77 °FScattered clouds.7 mph79%29.86 "HgN/A
4:54 AM77 °FPassing clouds.6 mph83%29.86 "HgN/A
4:00 AM77 °FClear.5 mph83%29.86 "HgN/A
3:30 AM77 °FClear.5 mph83%29.86 "HgN/A
3:00 AM79 °FClear.3 mph84%29.86 "HgN/A
2:30 AM79 °FPassing clouds.7 mph84%29.86 "HgN/A
2:00 AM79 °FPassing clouds.3 mph84%29.89 "HgN/A
Weather by CustomWeather, © 2014

See weather overviewHow to use our weather pages